Theta_e
340 340 339 339 338 337 336 334 333 332 331 330 329 328 327 327 326 324 323 321 320 319 318 316 314 313 310 309 309 308 308 307 307 306 305 306 306 305 304 303 303 304 305 305 306 306 306 305 305 304 304 304 304 304 304 304 304 303 303 303 303 303 303 302 302 302 301 301 301 300 299 299 299 299 300 300 299 300 299 298 296 296 297 297 296
340 340 339 338 338 337 335 334 333 332 330 329 328 328 327 326 325 324 322 321 320 318 317 316 314 313 310 309 308 308 308 307 306 306 305 306 306 305 304 303 304 305 305 305 305 304 305 304 304 304 304 304 303 303 304 305 304 303 303 302 302 302 302 301 301 301 301 300 300 299 299 299 299 299 299 299 299 299 298 296 296 296 296 296 296
340 339 339 338 338 337 335 334 333 331 330 329 328 327 327 325 324 324 322 320 318 318 317 316 314 312 311 309 308 308 308 307 306 307 306 306 306 306 305 303 304 305 305 304 304 304 304 303 304 305 305 304 303 302 303 304 304 304 303 302 301 301 300 300 300 300 300 300 299 299 298 298 298 298 298 299 299 298 296 296 296 296 296 296 296
339 339 339 338 337 337 335 334 332 331 330 329 328 327 326 325 324 323 322 320 318 317 316 315 314 312 310 309 308 308 307 307 307 308 306 306 307 306 305 304 304 305 304 304 304 304 304 304 305 305 305 304 303 302 302 303 303 303 302 301 300 300 299 298 298 299 299 299 298 297 297 297 297 298 298 298 298 296 296 296 296 296 296 296 296
339 339 339 338 337 336 335 333 332 330 329 328 328 327 326 325 324 323 321 319 318 317 316 315 313 312 311 309 308 308 307 307 308 307 306 306 307 306 305 305 305 304 304 304 304 304 304 305 305 305 304 303 303 302 301 302 302 301 301 300 299 298 297 297 298 298 297 297 297 296 295 296 296 297 298 298 297 296 296 297 297 297 297 297 297
339 339 338 338 336 335 334 333 331 330 329 327 327 326 325 324 323 322 320 319 318 316 316 314 313 312 311 309 309 308 307 308 308 307 306 306 307 306 306 305 304 304 304 304 304 304 304 305 305 305 305 303 303 302 300 300 301 301 300 299 296 295 295 296 296 297 297 296 296 296 296 296 296 297 298 298 297 297 297 297 297 297 297 297 297
339 339 338 337 336 335 333 332 331 329 328 327 326 325 324 323 322 321 320 318 317 316 315 314 312 311 310 309 309 308 307 308 308 306 306 307 306 306 306 305 305 304 304 304 305 304 305 305 304 304 304 303 302 301 298 298 300 300 297 295 294 295 296 297 297 298 298 298 298 298 297 297 297 297 298 297 297 298 298 297 298 298 298 297 297
339 338 337 336 335 333 332 331 330 328 327 326 325 324 322 321 320 320 319 317 316 316 315 313 312 311 310 309 309 308 307 308 307 306 307 307 306 306 306 306 305 304 304 305 304 304 305 304 304 303 303 302 301 297 294 295 296 296 295 295 297 299 299 299 299 299 299 299 299 298 298 297 297 297 298 298 298 298 298 298 298 298 298 298 297
338 337 337 335 334 332 331 330 328 327 326 325 324 322 321 320 319 319 318 316 316 315 314 313 312 311 310 309 309 308 308 307 307 307 307 306 306 306 306 306 305 304 304 304 304 304 304 304 304 302 300 298 297 294 291 293 294 294 296 298 300 300 300 300 300 300 299 299 299 299 298 298 297 297 298 298 298 298 298 298 298 299 299 298 297
337 337 336 334 333 331 330 328 327 326 325 324 323 321 320 319 319 318 316 316 315 315 314 312 311 310 310 309 309 308 307 307 307 306 305 305 306 306 306 305 305 304 305 304 304 304 304 304 303 299 295 293 293 294 295 296 297 297 298 300 300 300 300 300 301 301 299 298 299 299 298 298 297 297 298 298 298 298 298 299 299 299 298 298 297
337 336 335 333 331 330 328 327 326 325 324 323 322 321 320 318 318 317 316 315 315 314 313 312 311 310 310 309 309 308 307 307 305 304 305 306 306 306 305 305 305 305 305 304 304 304 304 304 303 300 298 295 293 295 299 299 299 299 299 300 301 301 301 301 301 301 300 299 299 299 298 297 298 298 298 298 299 298 298 299 299 299 298 297 297
336 335 333 332 330 329 327 326 325 324 323 322 322 321 319 318 317 316 315 315 315 314 313 312 311 310 309 309 308 307 307 305 303 304 306 306 306 306 306 305 305 305 305 304 304 304 304 304 304 303 303 299 295 297 300 300 299 298 297 300 302 302 302 302 302 302 302 301 300 299 298 297 297 298 299 299 298 298 298 299 299 298 298 297 297
335 334 332 330 328 327 327 326 324 323 322 322 321 320 319 317 316 315 315 315 314 313 312 312 311 310 309 309 308 307 306 304 303 305 306 305 306 306 306 306 306 305 305 305 304 304 304 305 304 304 303 301 299 300 300 299 298 296 296 300 303 302 302 302 302 303 302 301 300 299 298 298 297 299 299 299 298 298 298 299 298 298 298 297 297
334 333 331 329 327 326 326 325 324 323 322 321 320 320 318 316 315 315 315 314 313 312 312 311 311 310 309 308 308 307 306 304 304 306 305 305 306 306 306 306 306 305 305 306 305 305 305 305 305 304 303 302 302 302 301 301 298 295 297 302 302 301 302 302 302 301 300 299 298 298 298 298 298 299 300 300 299 299 299 299 298 298 298 298 298
333 331 329 328 326 325 325 324 323 322 321 321 320 319 318 316 315 314 314 314 313 312 311 311 310 309 309 308 308 307 306 305 306 305 305 306 306 306 306 306 306 306 306 306 306 306 305 305 305 304 303 303 303 303 302 303 299 295 299 303 301 301 302 302 301 299 297 297 298 298 299 299 299 300 300 300 300 299 299 299 299 298 298 298 298
332 330 328 326 325 325 324 323 322 321 321 320 320 319 317 315 314 314 314 313 312 311 311 310 310 309 308 308 307 306 306 306 306 305 305 306 306 306 307 306 306 306 306 306 306 306 305 305 305 305 304 303 303 303 303 303 299 295 298 301 300 301 302 301 300 298 297 298 299 299 300 300 300 300 300 300 300 299 300 300 299 299 298 297 297
330 329 327 326 325 324 323 322 322 321 321 320 320 319 316 314 313 313 313 312 311 310 310 309 309 309 308 307 306 306 306 306 306 305 305 306 306 306 307 306 305 306 306 306 306 306 306 305 305 304 303 303 303 302 302 303 299 295 295 297 299 301 302 300 299 298 298 299 300 300 300 300 300 300 300 300 300 299 300 300 300 299 298 297 297
329 328 326 325 324 324 323 322 322 321 320 320 320 318 315 314 313 313 312 311 310 310 310 309 309 308 307 307 307 307 307 307 306 306 305 305 305 306 306 306 305 306 306 306 306 306 305 305 305 305 303 302 303 302 302 303 299 295 293 295 297 299 299 298 298 299 300 300 300 300 300 300 300 300 300 300 299 300 300 300 299 299 298 297 297
328 327 326 325 324 324 323 322 322 321 320 320 319 317 314 313 313 312 311 310 310 309 309 308 308 308 308 308 308 307 307 307 307 307 306 306 305 305 306 306 305 306 306 306 306 305 305 305 305 304 302 302 303 302 303 302 298 294 293 294 295 296 296 296 298 299 299 300 300 301 300 300 300 300 300 300 300 300 300 300 299 299 299 298 298
327 326 325 324 324 323 323 322 321 321 320 319 318 316 314 312 312 311 310 310 309 309 308 307 307 306 307 308 308 307 307 308 308 307 307 306 305 305 305 306 305 305 305 304 304 304 304 304 305 304 302 302 302 302 302 300 296 293 293 294 294 294 295 297 298 299 299 300 300 300 300 300 300 300 299 299 300 300 300 299 299 299 299 299 298
327 326 325 324 324 323 322 322 320 320 319 319 317 314 313 312 312 311 310 309 309 308 307 306 306 306 306 306 307 307 307 308 308 307 307 306 305 304 305 305 304 304 303 303 303 303 304 304 305 304 303 302 302 302 300 297 294 293 294 294 294 294 295 297 298 299 299 300 300 300 300 300 300 300 300 300 300 300 299 299 299 299 299 299 299
327 326 325 324 323 322 321 320 320 319 319 318 316 314 313 312 311 310 309 308 308 307 306 306 306 306 305 305 305 307 308 308 308 307 307 305 303 302 304 304 303 302 302 302 303 304 304 304 304 304 304 302 300 298 297 294 293 294 294 295 295 295 296 297 298 299 299 300 300 300 300 299 300 300 299 299 300 300 299 299 299 299 299 299 299
327 326 325 325 323 322 321 320 319 319 318 317 315 314 312 311 309 309 308 307 306 305 304 304 304 304 304 305 306 307 308 308 307 307 307 304 300 300 303 303 302 302 302 303 303 304 303 303 304 303 303 302 298 296 296 296 295 294 294 295 297 297 297 298 298 299 299 300 300 300 300 299 299 299 299 299 300 300 299 299 299 299 299 299 299
327 326 325 324 323 322 321 320 319 318 317 316 315 313 311 309 308 308 307 305 304 303 303 303 303 304 305 307 307 307 307 307 306 307 307 304 300 298 299 302 302 302 302 303 303 303 303 303 303 303 303 302 299 298 299 299 297 294 294 296 298 298 298 299 299 299 300 300 300 300 299 299 299 300 300 299 300 300 299 299 299 299 299 299 299
327 325 324 322 321 320 320 319 318 317 316 315 313 312 310 309 307 306 305 304 304 304 304 305 305 305 306 307 306 306 306 306 306 306 305 303 300 297 297 300 301 301 302 302 301 302 303 302 303 303 302 301 300 300 300 298 296 294 294 295 297 299 299 299 300 300 300 300 300 300 299 300 300 300 300 300 300 299 299 299 299 299 299 299 299
325 323 321 320 319 319 319 317 316 315 315 314 312 311 310 309 307 306 305 304 304 305 305 306 305 305 306 306 305 306 306 305 305 305 303 302 300 297 296 298 300 301 301 300 300 301 302 302 302 302 301 300 300 300 300 298 295 294 295 296 298 299 300 300 300 300 300 300 300 300 300 300 300 300 300 300 299 299 299 299 299 299 299 299 299
322 321 320 319 319 318 317 316 315 314 313 312 311 310 309 309 307 306 305 305 305 305 305 305 305 304 304 305 305 305 305 305 305 304 302 301 300 298 296 297 298 299 299 299 299 300 301 301 301 301 300 300 300 300 300 298 296 295 296 297 299 300 300 300 300 300 301 301 301 301 300 300 300 300 300 300 299 299 299 299 299 299 299 299 299
320 318 318 318 317 316 316 314 313 312 312 311 311 309 309 308 307 306 305 305 305 304 304 304 304 303 303 304 305 304 304 304 305 304 302 300 299 298 298 298 297 296 297 298 298 299 300 300 300 299 299 299 299 299 299 298 296 295 296 297 299 301 301 301 301 301 301 301 301 301 300 300 300 300 300 299 299 299 299 299 299 299 299 299 299
319 317 316 316 315 315 314 313 313 312 311 311 310 310 309 308 307 306 306 305 305 305 304 303 303 303 302 303 304 304 304 304 304 304 302 300 298 297 298 298 296 294 296 297 298 298 299 299 299 299 298 298 297 297 297 296 295 296 298 299 301 302 302 302 302 301 301 301 301 300 300 300 300 300 300 299 299 299 299 299 299 299 299 299 299
318 316 315 314 314 313 312 312 312 311 310 310 309 309 308 308 307 306 305 305 305 305 304 304 303 302 303 304 305 304 304 304 303 303 301 300 298 297 296 296 294 293 294 295 296 297 298 299 298 298 297 297 297 296 296 296 297 299 300 301 302 302 301 301 301 301 300 300 300 300 300 300 300 300 299 299 299 299 299 299 299 299 299 299 299
317 315 314 313 313 312 311 311 311 310 310 309 309 308 307 307 306 306 305 305 305 304 304 304 303 302 303 304 305 304 303 303 303 302 301 300 298 297 296 295 293 291 292 292 293 296 298 298 298 298 297 297 297 298 298 298 299 300 300 300 300 301 301 301 301 301 301 301 300 300 300 301 300 299 299 299 299 299 299 299 299 299 299 299 299
316 315 314 312 311 311 311 310 310 310 309 309 308 308 307 306 306 306 305 305 305 304 303 303 303 302 303 303 303 303 302 302 301 301 300 299 298 296 295 293 292 291 291 291 292 295 298 298 297 298 298 298 299 299 299 299 299 299 298 298 299 301 301 301 301 301 301 301 301 300 300 300 299 299 299 299 299 299 299 299 299 299 299 299 298
316 314 313 311 310 310 310 310 309 309 309 309 308 308 307 306 305 305 305 305 305 304 304 303 303 302 302 302 301 301 301 301 300 300 299 298 298 296 294 292 291 291 291 291 292 295 297 297 297 298 299 299 300 299 299 298 298 298 298 298 299 300 301 302 302 301 301 301 301 301 300 299 299 299 299 299 299 299 299 299 299 299 299 298 298
316 314 313 312 311 310 310 309 309 309 309 308 308 308 307 306 305 305 304 304 303 303 303 303 301 300 300 300 300 300 300 299 299 299 298 299 299 296 293 292 293 293 293 293 294 295 295 296 296 297 299 299 299 297 296 296 297 297 298 298 299 300 301 302 302 302 301 301 301 300 300 299 299 299 299 299 299 299 299 299 299 298 298 298 298
316 314 314 313 311 310 310 309 309 309 309 309 309 308 307 307 305 304 304 303 301 300 301 302 301 299 299 299 299 299 299 299 299 299 299 300 298 295 294 294 295 295 294 295 295 295 295 295 295 296 297 298 296 295 295 296 296 297 297 298 299 301 302 302 302 302 302 301 301 300 299 299 299 299 299 299 299 299 299 299 298 298 298 298 298
316 315 314 314 313 312 310 310 309 309 309 309 309 308 308 307 305 304 304 303 301 299 300 301 300 298 298 298 298 299 300 300 299 299 300 300 298 295 294 296 296 295 295 295 296 296 296 296 296 296 296 295 295 294 294 295 296 296 297 298 300 302 302 302 302 302 301 301 300 300 300 299 299 299 299 299 299 299 298 298 298 298 298 298 298
317 316 315 314 313 312 311 310 309 309 309 309 309 308 308 306 304 303 302 301 300 299 299 299 298 297 297 297 297 299 301 301 300 300 300 300 298 295 295 296 297 296 295 296 297 297 297 297 296 296 296 296 295 295 295 296 297 297 298 299 300 302 302 302 302 302 302 301 301 300 300 300 299 299 299 299 299 299 299 298 299 299 299 299 299
318 317 316 314 312 311 311 310 309 309 309 309 309 308 307 306 305 303 302 301 300 300 299 299 298 297 297 297 297 299 301 301 300 299 298 298 296 295 295 296 297 297 296 297 297 297 297 297 297 296 296 296 296 295 295 296 296 297 298 299 300 301 302 303 303 302 302 302 301 300 300 299 299 299 298 298 298 299 298 299 299 299 299 299 299
318 317 316 313 312 311 311 310 309 309 309 309 308 307 306 305 305 304 302 301 300 300 300 299 298 297 297 297 297 299 301 300 298 298 297 296 296 296 296 296 297 297 297 297 297 297 297 297 297 297 297 297 297 297 297 296 295 296 298 299 300 301 302 303 303 302 301 301 301 300 300 299 299 299 299 298 298 298 298 298 299 299 299 299 298
317 315 314 312 312 311 310 310 309 309 309 309 308 307 306 305 304 304 303 302 301 300 300 300 299 298 297 297 297 299 300 300 299 298 297 297 296 296 296 296 297 297 297 297 297 297 297 298 298 298 298 299 299 299 298 298 297 298 299 300 301 302 303 303 303 302 301 301 300 300 299 299 299 299 299 299 299 298 298 298 298 298 298 298 298
316 314 313 312 312 311 310 310 309 309 309 309 308 307 307 306 305 305 304 303 302 301 301 301 301 300 298 298 297 298 299 299 299 299 299 298 298 298 297 296 297 297 298 298 298 298 299 299 300 300 300 300 300 300 299 299 299 299 299 300 301 302 303 302 302 301 301 300 300 300 300 299 299 299 299 299 299 298 298 298 298 298 298 298 298
315 314 312 311 311 311 310 310 310 309 309 309 308 308 307 307 306 305 305 304 303 303 302 303 303 302 301 300 299 298 298 298 299 300 300 300 300 299 299 299 299 299 299 299 299 299 299 300 300 300 300 301 301 301 300 299 299 300 300 301 302 302 302 302 302 301 301 300 300 300 300 300 300 299 299 299 299 298 298 298 298 298 298 299 298
314 313 312 311 311 311 311 310 310 309 309 309 309 309 308 307 307 306 305 305 305 304 304 304 304 304 303 302 302 300 299 298 298 299 300 300 300 300 300 300 300 299 299 299 299 299 299 299 300 300 300 300 301 300 300 300 300 301 301 302 302 302 302 302 301 301 301 301 300 300 300 300 300 300 299 299 299 299 299 298 298 299 299 298 298
314 313 311 311 310 310 310 310 310 309 309 309 309 309 309 308 308 307 307 307 307 306 305 305 305 305 304 303 303 302 300 299 298 299 299 299 300 300 300 300 300 299 299 299 299 299 299 299 299 299 299 299 300 301 300 300 300 300 301 301 302 301 302 302 302 302 301 301 301 300 300 300 300 300 300 299 299 299 299 299 299 299 299 298 298
314 312 311 310 310 310 309 309 309 310 309 309 309 309 309 309 309 308 308 308 308 308 307 306 306 306 305 304 303 303 302 301 300 299 299 299 299 299 300 300 300 299 299 299 299 299 299 299 299 299 299 299 299 301 301 300 299 300 300 301 301 302 302 302 302 301 301 301 301 301 301 300 300 300 300 299 299 299 299 299 300 300 299 298 298
312 311 310 310 310 309 309 309 309 309 309 309 309 310 310 310 309 309 309 309 309 309 309 307 306 306 306 305 304 304 303 303 302 301 300 300 300 300 300 300 299 299 299 299 300 300 300 299 299 298 299 299 299 300 301 300 300 300 300 301 301 302 302 301 301 301 301 301 301 301 301 301 301 301 300 300 300 299 299 300 300 300 299 299 298
312 311 310 310 310 309 309 309 309 309 309 309 309 309 310 310 310 310 310 309 309 309 309 308 307 306 305 305 305 304 304 304 303 302 302 302 301 301 301 301 300 300 300 300 300 300 299 299 298 298 298 299 299 300 301 300 300 300 301 301 301 301 301 301 301 301 301 301 301 301 301 301 300 300 300 300 300 300 300 300 300 299 299 298 298
312 311 310 310 309 309 309 309 309 309 309 308 308 309 309 310 310 310 310 309 309 309 309 308 307 306 305 305 305 304 304 304 304 303 303 302 302 302 301 301 300 300 300 299 299 298 298 297 297 297 298 299 300 300 301 300 300 300 300 301 301 301 301 301 301 301 301 300 300 300 300 300 300 300 300 300 300 300 299 299 299 299 298 298 298
312 312 311 310 310 309 309 309 309 309 308 308 308 309 309 309 309 310 310 310 309 309 308 308 306 306 305 304 303 303 303 303 302 302 302 301 300 300 299 299 299 299 298 298 298 298 299 299 299 299 300 300 300 300 300 300 299 300 300 301 301 301 301 301 301 301 301 301 300 300 300 300 299 299 299 299 299 299 299 299 299 298 298 298 298
312 311 311 310 310 310 310 309 309 309 309 308 309 309 309 309 309 310 310 310 309 308 307 306 305 305 304 304 303 303 302 302 302 302 301 300 299 298 298 298 299 299 299 299 299 300 300 300 301 301 301 300 300 300 300 300 300 300 301 301 302 301 301 301 301 301 301 301 300 300 300 299 299 299 299 299 299 299 299 299 298 298 298 297 297
311 311 311 310 310 310 310 309 309 309 309 309 309 309 309 309 309 309 310 309 308 307 306 306 305 305 305 305 304 304 303 302 302 302 301 301 300 299 299 299 300 300 300 300 300 301 301 301 301 301 300 300 300 300 300 301 301 301 301 301 301 302 302 302 302 301 301 301 300 300 300 299 299 299 299 299 299 299 298 298 297 297 297 297 297
Wind_Speed
34 33 32 32 33 33 33 32 32 31 32 32 31 30 29 27 26 26 24 21 22 21 19 18 18 18 19 19 19 19 18 18 18 17 18 18 16 15 15 15 16 17 16 14 13 12 13 14 13 12 11 9 9 9 9 10 8 7 7 7 6 6 6 6 6 10 14 15 17 20 22 23 24 24 24 25 25 24 26 29 30 31 32 33 34
34 33 32 33 34 34 34 33 32 32 33 33 31 30 29 28 28 27 24 22 22 21 20 19 18 19 20 19 19 19 18 18 18 18 18 18 17 15 15 15 17 17 15 14 12 11 12 12 13 12 9 7 7 8 9 9 9 7 6 5 6 7 7 8 8 9 14 18 20 21 23 24 25 24 24 25 25 26 29 30 30 31 34 34 33
33 33 33 33 34 35 34 33 33 34 34 33 31 30 30 29 29 27 24 24 22 20 20 21 19 19 20 20 20 20 19 18 18 18 18 18 18 16 14 15 17 17 16 15 13 12 11 12 12 11 9 7 7 7 8 7 8 7 5 4 4 6 6 7 9 10 14 19 21 22 24 25 24 24 24 24 25 28 30 29 30 33 35 34 32
33 33 34 34 34 35 35 33 34 35 35 33 32 31 31 31 30 27 24 24 22 21 21 21 20 20 21 21 20 20 20 19 18 18 18 19 18 16 15 16 16 15 15 14 13 11 11 12 11 9 8 8 7 6 7 6 6 5 4 3 3 5 6 6 8 11 13 17 20 21 23 23 23 23 23 23 26 28 28 28 31 34 36 34 33
34 34 34 34 34 35 35 35 34 36 35 34 33 32 32 32 30 27 24 23 23 23 23 22 21 22 22 21 21 21 21 20 19 19 19 18 17 16 16 15 14 14 13 13 12 11 11 11 10 8 7 7 5 4 5 5 4 4 3 3 3 5 6 6 7 10 12 15 18 20 21 22 22 22 22 24 28 28 27 28 32 35 36 36 34
35 35 34 34 34 35 36 35 35 36 35 34 34 34 33 32 30 28 26 25 25 25 25 23 22 23 23 22 22 22 21 21 20 19 19 18 16 16 15 15 15 14 13 13 12 11 10 10 9 8 7 6 5 3 3 5 4 2 2 3 4 5 6 8 8 9 11 14 16 19 22 23 23 22 23 25 27 28 27 28 32 36 37 36 35
36 36 35 34 34 36 37 36 35 35 35 36 35 34 32 32 31 30 28 27 27 27 26 24 24 24 23 23 23 22 22 21 20 20 20 18 17 16 16 16 16 15 14 13 12 11 10 10 9 8 7 5 3 1 2 4 4 1 2 4 5 7 9 10 10 10 12 14 16 18 20 22 23 23 24 25 26 27 27 27 30 35 39 38 35
36 36 36 35 34 35 36 36 36 35 35 36 35 33 33 32 31 30 28 27 28 28 26 26 25 24 23 23 23 22 22 22 21 21 21 19 18 18 17 17 17 16 14 13 12 11 10 9 8 7 6 5 2 1 2 3 2 1 3 5 6 8 9 10 11 12 13 15 17 18 19 22 24 24 25 27 25 26 28 26 27 33 38 40 38
35 36 36 35 35 35 35 36 36 35 35 36 35 34 33 32 31 29 28 28 28 27 26 27 26 25 25 24 23 22 23 23 22 23 22 20 19 19 17 17 16 16 15 14 12 11 10 9 7 5 4 4 3 3 4 4 3 3 4 5 6 8 10 11 12 13 13 15 16 18 19 22 25 24 25 26 26 27 30 28 28 32 35 37 39
34 34 35 34 35 35 35 35 36 35 36 35 35 34 33 32 31 30 28 29 28 27 27 27 27 27 26 26 25 25 24 24 24 23 21 20 20 19 18 17 17 16 16 15 13 12 11 9 6 3 2 4 5 4 3 3 3 3 4 5 7 9 11 13 15 15 15 15 16 18 19 22 25 25 25 27 28 29 31 30 30 32 32 29 33
34 33 33 34 35 36 35 36 36 35 35 35 35 34 33 32 31 30 29 29 29 29 29 28 28 28 28 28 28 27 27 26 24 20 19 20 20 19 18 17 17 16 15 15 14 13 11 9 6 4 2 3 5 4 1 1 2 3 3 3 5 9 12 14 16 16 16 16 17 19 19 22 25 26 26 28 29 30 32 31 30 31 29 23 23
34 33 33 34 36 36 36 36 36 35 35 35 35 34 33 32 31 30 30 30 30 29 29 30 29 29 30 30 29 28 28 26 21 18 20 21 19 18 18 17 17 16 15 14 14 13 12 9 7 5 2 3 4 3 2 1 2 4 4 3 4 8 10 12 15 16 16 16 18 20 21 22 24 27 28 29 30 31 32 32 30 29 29 25 23
34 33 34 35 36 37 37 37 35 35 35 35 35 34 33 32 32 31 31 31 31 30 30 31 29 29 31 31 29 29 26 21 18 19 21 21 18 18 18 17 16 16 15 14 13 13 13 11 9 7 4 3 3 2 3 3 5 7 6 3 4 7 8 10 12 12 13 14 16 19 20 21 24 27 30 31 32 32 30 30 30 29 29 29 28
34 35 35 36 36 36 37 36 35 34 34 34 34 34 33 32 32 32 32 32 32 30 31 31 30 29 31 31 29 27 22 19 19 21 20 20 19 19 17 16 15 15 14 14 13 14 14 13 11 8 6 5 5 5 5 5 7 7 4 2 5 7 7 8 8 8 10 11 14 17 20 22 25 27 29 31 31 30 28 28 29 29 29 31 33
32 34 35 36 36 36 36 35 35 35 34 34 34 34 33 32 32 32 33 33 32 31 31 31 30 29 30 30 27 24 20 20 22 22 21 20 20 19 17 17 16 14 14 14 14 15 17 15 11 9 8 9 9 8 7 7 8 6 3 2 4 5 6 6 7 10 12 12 13 17 20 22 25 26 25 25 24 25 26 27 27 28 29 31 33
32 33 34 35 36 36 36 35 35 35 35 34 33 33 33 32 32 33 33 32 31 31 30 30 30 29 29 28 26 22 21 23 23 22 22 21 22 20 16 16 18 16 14 14 13 14 16 14 10 9 10 12 11 9 8 8 8 6 5 4 3 3 4 5 8 11 11 11 13 17 19 20 21 21 21 21 22 25 27 26 27 29 28 27 28
31 33 35 36 36 36 36 36 35 35 35 35 33 32 31 32 33 33 33 31 30 30 30 29 28 28 28 26 25 23 23 24 24 23 23 21 23 22 16 16 18 17 14 14 14 15 15 14 11 10 11 12 11 9 9 9 8 7 7 5 2 1 2 5 7 8 7 9 12 13 15 16 17 18 21 21 24 28 27 25 27 29 27 21 20
31 33 34 35 36 36 37 38 37 36 35 35 34 32 31 33 34 35 35 34 32 31 31 29 28 28 26 25 24 24 24 24 23 24 23 22 23 23 19 15 15 14 13 14 15 14 13 14 14 14 13 12 11 11 10 10 9 7 5 3 3 3 3 4 5 5 6 7 9 11 13 14 16 19 21 23 26 27 25 26 29 29 26 22 21
33 34 34 35 36 36 37 38 38 38 36 35 33 32 32 34 35 35 35 34 31 30 30 29 29 28 26 24 24 24 24 24 23 24 24 23 24 25 22 17 14 12 12 13 13 13 14 15 15 16 15 14 13 12 11 10 9 7 5 3 4 4 3 4 5 7 8 10 12 14 15 15 17 20 22 24 26 26 25 27 30 30 27 26 26
33 34 35 35 35 34 36 38 38 38 37 34 33 33 33 33 34 33 32 32 31 30 29 29 29 28 26 25 24 24 24 24 25 25 23 24 26 28 27 22 17 13 13 13 14 14 15 17 17 16 16 16 15 13 11 10 9 8 6 4 4 4 3 3 5 7 10 13 15 16 15 16 17 20 22 25 26 26 26 29 31 31 29 27 28
34 34 35 35 34 34 35 36 36 35 35 34 32 32 33 33 33 32 31 31 30 29 28 28 28 28 27 26 24 23 24 25 27 26 23 24 28 31 31 26 19 15 15 16 17 17 17 18 19 18 17 17 17 16 14 11 10 9 7 5 4 4 4 5 6 9 11 13 16 16 14 15 17 19 22 25 25 25 28 30 30 32 32 29 27
35 34 34 34 33 33 33 33 33 34 35 34 33 32 32 33 33 32 32 31 30 30 28 28 28 27 26 26 26 25 24 25 27 26 24 25 28 31 32 29 21 17 16 17 18 20 20 19 19 18 17 16 16 16 14 12 10 9 7 5 4 4 5 7 9 11 12 14 16 15 12 14 18 19 22 25 25 25 28 30 30 31 33 33 29
35 34 34 33 32 33 33 33 34 35 35 35 35 33 32 32 32 32 32 30 30 29 28 28 27 27 26 26 27 26 25 25 25 24 25 26 28 30 32 31 25 19 16 15 16 18 19 19 19 19 17 15 14 13 12 11 10 9 7 5 4 4 6 8 10 12 13 15 17 13 10 14 17 18 21 24 24 24 27 29 30 31 32 33 33
35 34 34 33 32 33 34 34 34 35 35 36 35 33 32 31 31 31 30 29 28 28 28 28 28 28 27 26 26 26 25 24 23 23 25 27 28 29 32 32 27 21 17 14 13 14 15 17 19 20 18 15 14 13 12 11 10 9 8 7 6 7 8 9 11 12 14 16 17 12 8 14 17 17 20 23 22 22 26 28 28 31 32 33 34
32 32 32 32 33 35 35 33 34 34 36 36 34 33 33 31 30 30 29 29 28 28 28 29 30 29 27 25 25 24 24 23 23 24 25 26 27 28 30 32 30 24 19 14 10 10 11 12 16 19 20 17 15 14 12 10 10 10 10 10 10 10 11 11 12 14 15 17 16 11 7 13 17 17 19 21 20 21 25 26 27 29 31 32 34
31 31 31 32 34 36 34 32 31 33 34 35 34 34 34 33 32 30 29 29 29 28 29 29 29 29 27 25 23 23 23 23 25 25 26 27 27 27 29 32 31 27 22 16 10 7 8 9 11 16 18 17 15 13 10 9 11 12 12 12 13 13 13 13 15 17 18 18 17 12 8 12 17 17 18 19 19 21 24 25 26 28 30 31 33
31 31 32 33 34 34 33 31 31 31 32 32 31 31 32 32 31 31 30 29 28 28 29 29 28 27 27 25 23 24 25 26 26 26 26 28 28 27 29 31 31 30 27 22 14 8 7 8 11 13 15 14 12 11 10 11 13 14 15 15 14 14 15 16 18 19 20 20 18 15 10 12 16 16 16 17 19 21 23 24 26 28 29 29 30
32 31 32 33 32 32 33 32 32 32 32 32 32 31 32 32 32 33 34 35 33 32 30 30 29 29 27 26 25 25 26 28 28 28 28 29 30 30 30 31 31 32 31 26 19 12 8 8 11 11 11 11 11 12 12 14 15 17 18 17 16 17 17 18 19 19 18 17 16 15 12 13 15 15 14 16 18 21 23 24 26 28 28 27 27
31 30 30 31 29 30 31 32 33 32 32 32 32 33 34 35 35 35 35 35 36 36 34 33 32 31 29 29 29 27 28 30 31 29 28 29 31 32 33 32 33 33 31 28 23 17 12 11 12 13 12 12 12 14 15 16 17 18 18 17 17 16 14 14 16 15 13 11 11 11 12 14 14 12 12 15 19 21 23 25 26 26 26 26 27
27 28 29 29 29 29 30 30 31 31 31 30 29 28 28 29 31 32 31 32 33 34 33 33 32 31 30 31 31 30 30 31 30 26 25 26 28 31 32 32 32 32 30 27 23 19 17 16 15 14 13 13 14 15 15 15 16 17 17 17 16 13 10 11 12 11 10 10 10 12 14 14 11 9 11 15 19 21 23 25 24 24 24 25 26
25 25 27 28 29 30 30 29 28 28 28 28 27 25 23 22 23 25 26 28 30 30 29 28 28 29 29 29 29 28 28 28 26 23 22 22 24 28 30 30 29 29 29 27 24 22 20 19 18 16 14 14 15 15 14 15 16 18 19 19 17 14 12 12 11 12 13 14 13 14 14 11 8 8 11 15 19 22 24 24 22 22 23 24 25
27 25 25 27 29 30 29 28 27 26 26 26 25 25 23 21 20 20 21 24 26 26 26 25 26 27 27 25 26 26 26 25 24 22 20 20 21 24 27 28 28 27 27 27 26 25 24 21 19 17 15 15 16 15 15 16 18 19 20 20 17 14 13 13 14 16 17 16 15 16 13 8 5 8 11 15 19 23 25 24 21 21 22 24 27
28 27 26 26 28 27 26 26 26 26 26 26 26 26 25 23 23 23 23 23 23 24 25 25 24 25 25 24 24 25 25 25 23 21 19 19 19 21 24 25 25 24 24 26 27 28 27 24 21 19 18 17 17 17 17 18 19 19 20 19 18 17 15 14 14 15 15 14 15 15 11 6 5 9 12 16 21 24 25 23 20 20 21 24 28
29 29 29 29 29 28 26 27 27 27 27 27 27 27 27 27 27 25 24 24 24 24 27 26 23 23 25 24 23 22 23 24 23 22 21 20 19 20 22 22 20 20 23 25 26 26 27 27 25 22 21 20 19 18 17 18 18 19 19 20 21 20 16 13 11 12 13 14 13 10 7 4 7 11 13 18 22 24 23 20 18 19 21 24 28
28 30 31 31 30 27 26 27 28 28 27 27 27 28 28 28 29 28 28 27 25 25 27 28 25 24 24 24 23 22 22 24 25 23 23 22 21 21 23 23 22 23 25 26 26 25 25 26 26 25 24 23 21 19 19 19 19 20 20 20 21 18 14 12 13 14 13 11 8 8 6 6 9 11 14 19 22 22 19 17 16 19 22 25 27
27 28 28 28 28 28 28 28 27 26 26 26 27 28 28 28 29 29 29 28 26 25 26 27 27 25 24 24 23 21 19 23 26 26 25 24 23 25 27 27 26 27 28 28 27 26 25 24 24 23 23 23 21 20 20 20 20 20 20 21 20 18 16 15 15 14 12 9 8 9 8 9 11 12 15 17 17 15 15 15 17 20 23 26 27
29 29 29 29 29 29 29 29 28 29 29 28 26 26 26 27 28 28 27 27 26 26 26 25 25 25 24 23 22 18 17 21 26 27 27 26 26 27 29 29 28 29 29 29 28 27 25 24 22 22 22 21 20 20 20 19 20 20 21 21 19 17 16 15 14 14 14 13 12 11 9 10 12 12 13 13 12 12 14 15 17 21 24 25 26
30 31 31 30 30 30 30 30 29 30 29 27 26 25 25 26 27 27 27 27 27 26 26 25 26 27 27 25 22 19 19 24 28 29 29 30 30 30 30 29 29 30 31 30 29 27 25 24 22 22 21 21 21 21 21 21 20 20 20 20 19 16 14 13 13 13 14 14 13 11 10 10 10 11 12 13 13 14 15 16 18 21 24 25 26
29 30 30 30 30 30 30 30 29 29 28 26 25 25 24 25 26 26 25 26 26 27 26 25 26 27 28 27 25 23 23 27 29 30 31 32 32 31 31 30 30 30 30 29 29 28 26 24 22 21 21 22 21 21 21 20 19 18 18 19 19 17 15 14 12 11 11 10 10 10 9 10 10 11 13 15 15 17 18 19 20 22 24 25 25
27 27 28 28 28 27 27 28 28 29 30 30 29 28 27 27 27 26 26 26 27 27 27 26 26 27 28 29 28 27 27 28 30 31 33 34 34 33 32 32 31 31 30 29 28 27 25 24 22 21 20 20 19 19 18 16 15 16 16 16 16 16 14 13 12 11 10 10 9 9 10 11 12 13 14 15 16 18 18 18 19 21 21 22 21
25 26 26 26 26 26 26 27 28 28 28 28 28 29 28 27 27 27 26 26 28 28 27 27 27 29 30 30 30 30 29 29 30 31 33 34 35 35 34 33 33 32 30 29 28 25 23 22 21 20 20 20 19 19 18 16 16 16 17 18 17 16 13 11 10 10 10 10 10 10 10 11 12 13 15 15 15 15 15 17 19 19 19 19 20
23 25 26 25 24 25 26 27 28 28 27 24 24 25 26 26 26 27 26 26 27 28 27 26 27 28 30 31 31 31 32 31 30 31 33 34 35 35 35 35 35 33 31 30 28 25 24 23 22 22 22 22 21 21 21 20 19 18 17 16 14 12 10 9 9 9 10 11 11 11 12 13 14 14 15 14 14 15 17 18 17 17 19 20 21
20 23 25 25 25 26 27 27 27 27 26 25 24 25 25 25 26 27 26 25 26 28 28 27 27 27 29 31 31 32 34 34 33 33 34 35 36 36 37 37 36 35 33 32 30 28 26 26 25 25 24 23 22 21 21 20 18 15 13 11 10 9 10 12 12 12 13 14 15 15 16 16 16 15 15 15 15 16 18 17 16 17 20 21 21
18 22 24 24 23 23 24 25 26 26 27 27 25 25 25 25 24 25 26 25 25 26 29 30 28 26 27 30 33 34 35 35 35 34 35 36 36 37 38 38 38 37 35 34 32 30 29 28 28 27 26 24 22 21 21 21 19 16 14 12 12 13 13 14 14 15 16 18 18 19 19 19 18 18 17 16 16 17 18 17 16 18 20 20 20
20 23 25 23 22 21 22 23 24 25 25 24 23 23 24 24 23 24 26 26 24 24 26 29 29 28 27 29 34 36 36 35 35 34 34 35 36 36 37 38 38 37 37 35 34 33 32 32 31 30 28 25 23 21 22 22 22 19 17 15 15 14 13 12 12 13 14 16 17 18 19 20 21 21 19 17 16 18 18 18 18 19 20 19 19
22 25 26 25 23 22 22 23 23 23 23 24 23 22 21 22 23 25 27 26 24 22 22 22 25 26 25 26 30 34 34 34 34 34 33 33 34 34 35 36 36 36 36 35 35 35 35 35 35 33 30 27 25 23 23 22 21 19 18 17 17 17 16 15 14 14 14 16 17 19 21 21 21 21 20 18 18 19 19 19 19 20 20 19 20
23 24 25 25 23 23 22 22 23 23 23 23 23 23 22 21 21 23 25 26 24 23 22 20 21 22 22 22 26 29 30 31 33 32 32 32 32 31 31 32 32 33 33 32 32 34 35 35 35 34 32 28 26 25 24 24 22 20 18 18 19 20 20 19 17 16 15 15 17 19 20 18 15 14 14 15 17 18 18 19 21 21 21 20 19
22 21 21 22 22 22 22 22 22 23 23 22 23 24 25 23 21 20 22 24 25 25 25 24 23 23 22 22 23 25 27 29 30 29 29 30 29 28 28 29 29 29 29 29 28 29 30 31 32 32 31 29 27 26 25 25 24 22 21 20 20 20 20 19 19 18 17 17 18 17 14 12 10 9 10 12 14 16 17 19 21 22 20 19 18
19 18 19 21 22 22 22 22 23 24 24 23 23 24 25 26 25 24 24 24 24 25 27 26 25 24 24 23 23 23 24 26 26 27 27 28 27 26 26 26 26 26 27 27 26 26 26 27 27 27 27 27 26 25 24 23 23 23 22 21 21 21 20 20 19 18 18 20 19 15 11 10 10 10 11 12 14 17 19 20 21 20 18 17 18
17 16 17 20 22 22 22 22 23 23 23 23 24 24 24 24 25 27 27 24 22 22 25 25 25 25 24 23 23 23 24 25 26 26 26 26 26 25 25 25 25 26 26 26 26 26 26 26 26 25 25 25 24 23 23 22 21 21 21 20 20 21 21 20 19 18 19 20 19 16 13 13 14 14 16 17 19 20 20 21 20 19 18 18 18
16 16 19 21 21 22 22 22 22 22 22 22 22 24 24 23 23 24 26 24 21 20 22 24 25 25 25 23 23 24 25 25 26 26 25 24 24 24 24 24 25 25 26 26 25 24 24 24 23 23 23 22 22 22 22 22 22 22 21 20 19 20 20 20 19 18 17 17 17 16 15 16 17 18 19 20 20 20 20 20 18 17 17 17 16
Wind_Direction
191 190 190 188 183 180 180 180 179 179 178 177 177 177 177 175 172 170 170 170 173 174 173 170 168 165 164 164 164 161 158 159 160 158 152 148 146 145 146 147 140 132 128 126 127 132 130 124 121 122 122 117 116 118 105 89 84 82 73 63 53 34 11 7 346 316 320 335 338 340 345 345 343 345 346 345 344 341 334 332 335 338 338 337 338
190 188 186 184 182 180 179 178 178 177 175 175 175 176 175 173 171 171 171 172 174 175 174 172 170 168 167 168 166 163 162 162 160 158 154 148 145 146 148 147 139 133 132 133 134 136 139 136 130 127 123 112 112 123 114 90 79 79 75 61 45 37 20 5 359 333 322 332 339 342 345 346 345 346 347 346 343 339 334 335 338 336 333 336 339
189 186 184 181 180 180 179 177 176 176 175 173 173 174 174 172 172 171 169 170 174 175 174 173 171 171 171 170 168 166 165 161 158 159 157 150 148 150 150 146 142 141 140 138 138 138 136 135 132 127 122 113 107 120 123 97 78 79 71 52 32 20 9 2 1 347 328 330 339 344 345 346 345 344 344 344 340 336 337 338 337 333 333 338 341
187 184 182 180 180 180 179 177 175 174 174 173 173 174 175 176 177 174 170 171 174 175 174 173 172 172 173 172 171 170 166 161 161 164 160 153 152 153 151 147 147 149 149 145 143 141 137 133 129 129 133 129 115 115 127 112 85 78 53 27 11 357 358 8 8 357 342 336 339 345 347 345 343 341 342 342 338 337 340 338 334 334 337 340 341
184 182 181 179 179 179 178 177 175 174 173 172 172 175 177 179 180 177 173 175 177 177 175 174 174 175 175 175 174 173 169 165 167 168 161 155 156 157 153 150 150 151 151 150 147 144 141 137 134 139 149 148 133 124 135 128 104 83 49 8 351 350 357 10 9 1 353 346 342 346 349 347 342 341 343 341 338 339 339 336 336 338 338 340 342
182 180 179 178 178 178 178 177 175 173 172 171 172 174 177 180 179 175 173 174 177 176 175 175 177 178 178 177 176 175 171 170 170 166 160 158 159 157 153 152 155 153 150 150 150 149 147 146 149 155 159 158 154 155 156 149 143 111 30 357 353 3 14 16 11 3 356 350 346 346 348 347 342 340 342 341 338 336 333 332 337 340 339 338 340
180 179 177 177 177 177 178 177 174 172 171 171 172 174 176 177 177 176 175 175 176 175 174 176 179 181 180 179 179 177 173 171 171 165 161 162 161 157 157 159 159 156 153 153 153 155 158 160 164 168 170 171 170 170 175 176 182 211 9 19 21 24 24 17 9 2 356 349 345 343 342 343 342 339 339 340 339 337 333 329 332 337 339 337 336
178 176 175 175 176 177 177 176 173 170 170 171 173 175 175 175 177 176 176 176 177 176 175 177 180 182 181 180 181 179 174 174 172 166 164 165 163 162 164 165 161 158 159 162 159 161 170 175 177 180 189 202 213 129 133 151 163 116 50 43 33 22 13 3 355 352 349 341 338 336 336 338 340 340 340 340 336 334 333 328 325 329 334 334 333
175 174 174 174 174 174 174 173 172 170 169 171 172 174 174 175 176 174 174 177 177 177 177 179 180 181 182 182 182 179 177 177 173 169 169 169 168 170 170 167 164 163 165 165 164 169 176 180 183 193 209 211 198 143 124 115 104 86 61 40 18 2 350 341 338 338 336 330 327 331 333 334 336 336 336 334 329 326 328 328 325 326 328 329 331
174 173 173 172 172 171 169 169 170 171 172 172 172 173 174 175 175 172 173 177 178 178 180 181 181 182 183 183 182 180 179 178 175 175 175 174 173 174 173 169 166 167 167 165 166 175 181 183 191 195 179 179 173 153 126 95 65 44 31 11 353 339 328 326 328 327 322 318 320 327 328 327 330 331 328 328 329 327 328 328 326 325 327 326 328
172 172 172 171 170 168 166 167 170 172 173 173 174 175 174 174 173 172 174 177 179 180 182 182 183 185 185 183 182 180 180 179 179 179 177 175 176 177 174 172 170 171 174 172 172 181 188 192 202 200 169 186 192 185 156 59 26 356 345 341 332 324 317 315 318 317 313 310 316 321 318 316 324 329 327 327 329 327 326 327 325 324 325 325 323
172 171 171 169 169 167 166 168 171 173 173 174 176 176 174 173 173 173 174 177 179 182 184 184 184 186 185 184 182 180 181 183 182 180 179 178 178 179 178 178 176 177 181 179 178 188 196 198 201 208 225 217 199 199 223 267 319 317 316 317 324 326 320 314 312 312 310 308 310 315 316 314 320 327 327 324 324 324 325 326 327 325 322 321 318
172 170 169 168 167 167 168 170 172 173 174 175 176 175 174 173 174 174 175 177 180 183 185 184 186 187 185 183 180 180 183 187 184 182 183 181 179 180 183 184 182 183 188 189 189 194 200 201 199 209 231 214 185 218 250 270 309 316 315 317 334 340 336 328 322 317 313 308 304 311 319 318 317 324 328 325 320 321 323 325 329 328 324 323 322
171 169 169 168 167 167 169 171 173 174 176 176 175 175 174 173 174 175 175 178 181 184 184 185 186 186 184 182 180 182 185 186 185 186 185 182 181 183 185 187 187 189 193 197 199 201 203 205 203 213 228 213 210 237 250 273 307 313 310 320 341 347 341 336 342 344 337 326 311 313 325 326 321 323 330 328 322 323 325 326 330 332 329 329 330
170 168 168 169 169 169 171 172 173 174 176 177 176 175 175 174 174 175 177 180 183 184 184 185 185 182 182 182 182 183 184 184 187 188 186 184 185 182 183 189 192 194 197 204 213 212 208 206 208 221 227 214 219 239 249 272 297 298 280 295 329 347 349 344 352 352 346 341 330 323 327 329 325 324 331 334 335 338 338 334 337 338 334 333 334
170 168 167 168 170 171 172 172 172 174 177 177 176 176 175 174 173 175 178 180 183 184 183 184 184 181 181 184 185 185 187 188 190 190 188 188 187 184 185 190 191 195 201 206 210 203 198 199 204 217 220 213 219 237 249 269 289 283 268 281 308 351 359 339 336 342 342 339 335 327 324 328 330 335 343 347 349 348 343 341 344 342 335 332 334
169 167 166 168 170 172 172 172 173 175 177 178 177 177 175 174 174 177 179 179 181 184 184 184 185 183 183 187 189 188 189 193 194 193 193 192 188 188 190 186 188 198 203 200 195 188 190 199 204 209 212 211 220 238 252 267 281 275 272 283 277 264 324 326 328 342 344 334 331 328 329 338 347 354 357 355 351 348 343 341 344 341 334 332 334
167 166 166 168 169 171 174 174 174 176 177 178 178 177 174 173 177 181 183 180 181 183 185 186 187 185 185 187 190 191 192 194 195 196 199 199 195 194 193 182 183 197 200 196 199 200 205 212 214 216 220 221 229 241 251 263 269 266 269 288 278 265 300 335 347 6 2 346 343 341 345 356 1 360 358 354 352 352 348 346 346 341 336 333 332
168 167 166 167 169 172 175 177 176 177 179 180 179 176 174 174 178 183 184 181 181 183 186 188 187 185 186 188 191 194 193 193 195 197 201 205 203 200 197 186 181 194 199 200 208 214 215 217 218 221 222 224 229 236 245 257 261 257 257 282 296 296 322 338 343 352 346 342 343 342 348 2 3 357 354 352 354 358 358 354 352 346 340 335 334
168 167 166 168 171 174 177 179 179 178 179 179 177 176 175 175 176 179 180 179 180 184 188 189 188 189 191 191 193 195 194 194 196 197 202 209 207 203 201 194 187 196 206 210 212 212 212 216 220 222 223 226 229 233 245 258 258 252 251 267 289 306 325 315 319 328 327 330 336 338 347 0 358 353 352 351 355 0 360 357 354 351 347 340 338
169 168 169 171 174 177 180 181 179 177 178 178 176 175 175 176 176 176 175 175 178 182 186 188 189 191 193 195 197 199 201 200 198 197 203 210 208 205 203 198 192 198 209 214 214 213 213 215 218 222 227 233 237 240 249 260 259 252 253 260 275 299 304 297 307 316 317 323 330 334 347 359 354 351 351 351 355 358 357 355 354 353 352 346 341
169 170 172 174 176 178 180 179 177 177 179 178 176 175 177 178 178 175 173 174 177 180 182 185 188 190 192 197 203 205 205 204 200 199 205 208 208 207 204 199 198 203 210 215 216 216 217 217 218 224 231 236 239 241 244 251 253 252 254 259 267 288 293 291 300 308 311 318 322 327 348 359 352 349 351 350 352 355 355 353 353 353 354 353 349
170 171 173 175 177 177 178 178 178 180 180 179 177 176 176 176 175 174 174 175 177 180 182 185 187 188 191 197 204 204 200 198 200 205 208 207 207 207 204 201 202 206 207 209 212 213 217 221 223 227 231 232 230 228 230 241 255 259 254 249 255 273 283 287 294 301 307 313 313 318 349 360 351 349 349 347 348 352 352 351 351 352 354 354 354
171 171 172 173 174 174 175 177 178 179 179 178 177 175 173 172 172 174 176 176 177 180 183 184 184 184 185 188 192 194 194 196 202 209 210 208 207 207 206 203 204 208 207 205 210 214 220 226 229 229 229 226 220 221 230 247 263 266 254 245 249 263 271 275 284 293 300 304 306 311 350 1 351 345 344 344 345 348 349 348 350 352 353 353 353
168 169 168 167 167 169 172 173 174 175 176 177 176 174 172 171 170 173 175 178 180 179 179 181 182 182 181 180 183 189 195 200 205 208 210 211 209 207 206 204 206 210 210 209 216 220 223 229 230 226 224 220 216 220 234 255 269 267 259 251 248 254 262 268 277 285 289 294 298 303 338 355 347 338 338 341 343 345 347 346 346 350 352 351 352
166 165 163 163 164 167 170 171 172 173 174 176 177 176 175 172 171 173 176 179 179 176 175 178 181 181 182 183 186 192 197 201 204 206 208 211 210 208 205 205 209 214 217 218 221 218 215 217 214 211 210 210 214 224 241 265 274 266 259 253 248 252 259 265 273 279 282 287 291 292 317 344 339 331 333 338 340 341 342 341 340 344 347 347 347
162 161 162 163 166 169 171 170 171 172 173 175 176 175 175 174 172 174 177 178 177 177 178 180 180 179 183 188 191 194 197 199 202 206 207 209 211 210 206 206 211 217 220 220 216 200 191 192 191 195 200 207 220 236 252 267 271 264 258 256 255 261 268 272 278 282 283 287 287 282 295 327 329 323 328 335 336 336 337 336 335 338 342 343 342
159 159 162 165 166 169 170 170 170 171 173 175 176 175 176 177 177 179 183 183 181 181 181 183 183 184 188 192 191 191 194 199 205 209 211 210 209 209 207 207 211 215 218 217 213 201 191 194 197 202 212 222 234 247 258 267 269 264 262 263 266 273 278 280 282 282 280 283 281 272 281 311 319 317 322 330 332 332 332 332 333 335 339 341 339
158 159 161 163 164 167 170 171 171 172 173 176 179 180 181 182 183 185 189 190 189 188 187 187 189 192 195 196 194 191 195 205 213 216 217 215 211 208 207 207 209 212 214 214 214 209 206 209 211 213 220 232 243 251 257 262 264 262 265 274 280 282 281 276 274 274 273 274 272 268 280 302 311 313 322 329 329 328 329 330 331 334 337 339 338
156 158 160 162 165 168 169 171 173 174 174 176 178 181 184 188 189 188 190 193 194 194 195 195 196 199 200 200 200 201 206 213 218 218 218 218 216 213 210 208 209 211 212 214 216 214 212 214 215 218 226 237 245 250 252 256 262 268 276 284 283 272 263 267 272 273 274 275 276 278 284 293 303 316 330 330 325 324 326 329 331 333 335 337 337
154 158 162 165 168 169 170 171 173 174 175 176 176 176 179 186 191 192 192 194 196 198 200 202 204 204 203 203 205 210 216 220 220 217 217 219 221 219 216 213 212 212 212 214 214 213 213 215 218 223 231 240 245 251 256 261 269 276 282 287 283 268 259 268 271 268 269 271 272 276 280 284 299 325 334 327 319 319 323 327 331 335 337 338 337
156 160 165 168 169 170 170 172 173 173 174 174 174 174 172 173 181 188 193 197 199 200 202 206 208 207 207 209 210 211 215 219 220 220 221 222 222 221 218 216 215 215 215 216 215 214 213 215 220 223 228 236 243 248 255 261 267 273 277 281 282 273 265 268 270 269 268 267 268 272 272 273 302 331 332 321 314 317 320 323 330 336 337 338 339
158 159 161 163 165 168 171 173 174 174 174 173 173 173 173 173 178 184 190 195 199 202 203 206 208 207 208 213 214 211 213 216 219 222 224 222 219 217 215 215 216 216 214 212 214 216 216 217 221 222 224 231 239 246 253 258 263 268 271 276 278 274 270 274 277 275 272 269 269 267 257 252 308 330 326 316 313 316 317 319 328 335 335 336 337
161 163 165 165 167 171 174 177 178 178 177 177 176 176 178 181 183 182 183 186 191 196 200 203 205 205 208 211 211 211 213 215 218 220 219 216 212 208 206 208 210 211 209 209 211 216 217 219 221 223 227 233 240 248 258 264 270 273 275 279 281 276 270 272 277 278 279 277 267 248 230 260 318 326 320 315 315 315 316 321 331 336 334 333 333
158 162 167 169 171 174 177 181 182 181 180 181 182 182 182 184 184 183 182 182 183 185 191 197 201 204 209 210 209 209 213 216 217 215 212 208 202 196 195 197 200 202 205 209 212 215 216 217 219 223 229 235 240 247 255 262 269 272 273 279 281 273 262 266 276 279 282 277 248 221 233 297 321 322 316 315 315 312 315 327 337 335 332 330 330
157 161 167 173 178 180 181 183 184 182 183 185 187 187 186 183 183 183 183 184 183 180 184 193 200 203 206 209 210 211 215 217 215 210 205 202 197 192 192 196 198 200 203 208 213 215 215 216 220 225 231 237 241 246 252 258 263 266 271 281 282 269 259 265 270 268 268 263 240 237 265 305 318 316 311 311 313 314 319 330 337 333 327 326 327
164 168 174 180 183 182 182 183 183 183 186 187 187 189 189 185 181 180 180 182 183 181 182 189 196 199 202 205 207 208 210 210 208 204 201 201 198 196 196 199 200 201 203 206 209 211 213 217 224 231 236 240 244 248 251 257 262 266 273 283 284 272 263 265 264 259 262 264 258 260 282 303 308 306 305 306 311 318 322 325 327 325 322 323 325
172 177 181 182 181 180 180 182 182 185 187 185 183 185 187 184 181 180 180 182 183 183 185 191 195 197 200 201 201 199 198 198 198 197 197 196 196 197 200 202 203 205 206 207 209 212 217 223 230 237 240 242 246 250 251 254 259 263 266 275 282 278 272 270 267 262 262 261 260 266 282 292 292 296 304 309 310 312 313 313 313 315 317 321 323
174 179 181 180 179 181 181 180 180 184 185 181 179 181 183 184 183 182 179 180 183 186 190 194 196 199 200 199 196 194 193 193 195 195 194 194 195 199 203 205 206 208 210 212 214 217 224 230 234 238 241 243 247 250 252 253 255 256 260 271 278 276 271 269 268 261 252 250 256 267 278 285 289 296 302 305 303 304 305 305 306 310 314 318 322
174 176 177 177 178 181 181 180 181 184 184 181 181 182 183 184 185 183 181 182 186 190 193 195 198 202 203 201 197 194 194 196 197 197 196 197 199 202 205 207 210 213 215 217 220 224 229 233 234 236 241 245 248 250 251 250 248 248 255 266 272 271 270 270 268 259 248 248 260 272 280 286 291 294 295 296 299 304 307 306 307 312 316 320 324
174 174 176 179 181 180 180 181 185 187 186 184 183 184 185 186 185 184 185 187 190 192 195 199 203 206 207 207 205 203 203 203 203 202 202 203 204 206 209 211 214 217 220 222 224 226 228 231 234 240 245 251 255 255 253 250 249 253 258 263 266 267 270 272 268 260 255 256 263 273 281 288 292 293 294 296 301 308 311 308 307 312 320 324 326
174 175 176 178 180 179 180 183 186 188 188 187 186 187 187 186 185 186 189 190 192 194 197 202 207 210 210 210 210 210 211 212 211 209 208 209 210 212 214 215 217 219 221 223 223 223 223 227 233 240 246 254 259 259 254 251 254 257 257 257 259 260 264 270 270 264 260 262 267 274 282 288 290 288 290 296 302 304 303 302 304 312 320 324 323
178 179 177 178 181 183 184 184 183 183 185 186 187 188 188 185 185 187 187 188 193 197 200 204 208 209 209 209 211 212 213 214 215 214 214 215 215 217 218 220 221 222 223 225 225 225 226 230 235 239 244 250 258 260 255 252 257 259 252 247 253 264 274 279 278 272 268 269 272 276 279 280 279 279 282 290 295 296 297 299 304 312 318 321 320
185 183 180 180 182 185 186 184 183 183 185 185 186 187 188 187 188 188 189 192 199 202 203 205 208 209 207 206 207 210 211 213 215 217 218 218 219 221 223 224 225 225 226 227 229 230 232 235 239 243 246 250 256 261 260 258 261 264 262 261 266 272 277 280 278 274 270 267 267 269 270 269 270 273 275 277 282 286 290 293 300 310 317 319 318
188 183 180 179 182 185 186 186 187 188 188 188 188 189 192 194 195 195 197 201 205 204 204 207 210 211 209 204 204 207 211 214 216 218 220 221 223 226 228 229 229 229 229 231 232 233 235 237 241 244 247 249 252 258 260 259 261 263 264 266 267 267 270 276 282 283 279 273 271 271 270 269 271 269 265 266 275 281 284 288 297 308 315 316 314
183 181 179 179 181 184 186 188 189 191 192 193 193 193 193 195 196 198 202 206 208 208 209 208 207 206 205 203 203 206 212 216 218 220 222 224 227 230 233 235 235 235 235 237 239 239 240 241 242 244 246 248 249 252 255 257 259 258 257 258 260 265 273 281 287 292 292 286 282 278 275 273 274 272 267 268 272 275 279 288 299 307 310 310 309
177 178 180 181 183 186 188 189 190 191 193 195 196 197 196 195 194 198 204 208 211 214 215 210 204 202 203 203 204 208 213 217 220 222 224 227 231 234 237 238 239 239 240 243 244 244 243 242 241 242 246 248 249 249 252 254 255 254 254 255 258 264 272 277 280 286 290 291 289 286 279 275 275 276 272 268 266 270 281 294 301 305 306 306 307
174 177 182 185 185 187 189 189 191 192 193 194 197 202 204 205 203 203 206 210 215 217 215 211 210 212 214 214 214 216 217 219 221 224 227 229 232 235 238 239 241 242 242 243 245 245 244 243 242 243 246 248 249 250 251 253 254 255 257 259 262 265 268 268 268 273 280 287 292 289 279 268 265 265 262 262 267 279 292 299 299 301 303 304 307
174 178 185 189 190 192 192 192 193 195 196 196 198 202 206 210 211 210 211 216 219 217 212 210 211 212 212 213 213 213 214 216 219 225 229 231 233 236 238 238 239 241 242 242 243 244 244 243 243 244 245 246 247 249 251 252 254 255 258 263 267 268 264 260 261 267 273 279 283 281 271 268 273 274 275 281 288 294 296 296 296 298 300 300 304
180 183 189 192 193 194 195 196 197 198 197 197 198 201 203 207 210 212 215 219 220 213 207 206 206 204 204 208 211 212 212 215 218 223 229 232 233 235 238 237 237 238 240 241 243 245 247 246 245 243 242 242 245 248 250 252 253 257 262 268 270 267 262 263 269 275 275 274 274 272 273 282 289 292 294 297 297 295 294 293 293 294 294 294 298
182 189 194 195 195 196 196 197 200 200 198 199 203 206 208 210 213 215 216 217 217 212 207 205 204 203 205 211 217 218 219 219 219 220 224 228 230 233 237 237 235 234 235 236 237 239 239 237 234 234 236 239 244 248 250 252 254 258 264 269 269 266 263 266 272 275 272 268 267 271 278 287 291 293 295 296 294 291 291 290 288 287 287 289 294